Saranac Lake, NY

6:18 AM EST on January 20, 2018 (GMT -0500)
Adirondack Regional

Weather History for KSLK - July, 2013

Change the Weather History Date:

Tuesday, July 30, 2013

  Actual Average Record
Temperature  
Mean Temperature 62 °F 63 °F  
Max Temperature 70 °F 75 °F 94 °F (1949)
Min Temperature 54 °F 51 °F 34 °F (1978)
Degree Days  
Heating Degree Days 4 3  
Month to date heating degree days 90  
Since 1 June heating degree days 274  
Since 1 July heating degree days 90  
Cooling Degree Days 0 1  
Month to date cooling degree days 100 45  
Year to date cooling degree days 146 74  
Since 1 June cooling degree days 136 71  
Growing Degree Days 11 (Base 50)    
Moisture  
Dew Point 53 °F    
Average Humidity 73    
Maximum Humidity 93    
Minimum Humidity 53    
Precipitation  
Precipitation 0.00 in 0.14 in 1.10 in (1963)
Month to date precipitation 5.44 4.06  
Year to date precipitation 25.72 20.26  
Sea Level Pressure  
Sea Level Pressure 30.13 in    
Wind  
Wind Speed 5 mph (WSW)    
Max Wind Speed 15 mph    
Max Gust Speed 31 mph    
Visibility 10 miles    
Events      
T = Trace of Precipitation, MM = Missing Value Source: NWS Daily Summary

Daily Weather History Graph

Daily Weather History Graph

Search for Another Location

Airport or City:

Trip Planner

Search our weather history database for the weather conditions in past years. The results will help you decide how hot, cold, wet, or windy it might be!

Date:

Astronomy

Jul. 30, 2013 Rise Set
Actual Time 5:41 AM EDT 8:23 PM EDT
Civil Twilight 5:08 AM EDT 8:57 PM EDT
Nautical Twilight 4:26 AM EDT 9:39 PM EDT
Astronomical Twilight 3:37 AM EDT 10:27 PM EDT
Moon 12:00 AM EDT (7/30) 2:40 PM EDT (7/30)
Length of Visible Light 15h 48m
Length of Day
14h 41m
Last Quarter, 41% of the Moon is Illuminated
Jul 30
Last Quarter
Aug 6
New
Aug 14
First Quarter
Aug 20
Full
Aug 28
Last Quarter

Hourly Weather History & Observations

Time (EDT) Temp. Dew Point Humidity Pressure Visibility Wind Dir Wind Speed Gust Speed Precip Events Conditions
12:07 AM 57.2 °F 53.6 °F 88% 30.12 in 10.0 mi West 3.5 mph - 0.00 in   Overcast
12:17 AM 55.4 °F 53.6 °F 94% 30.12 in 10.0 mi West 3.5 mph - 0.00 in   Overcast
12:51 AM 55.9 °F 54.0 °F 93% 30.11 in 10.0 mi WSW 3.5 mph - 0.00 in   Overcast
1:01 AM 55.4 °F 53.6 °F 94% 30.11 in 10.0 mi WSW 3.5 mph - N/A   Overcast
1:51 AM 55.9 °F 54.0 °F 93% 30.10 in 10.0 mi Calm Calm - N/A   Mostly Cloudy
1:59 AM 55.4 °F 53.6 °F 94% 30.12 in 10.0 mi Calm Calm - N/A   Scattered Clouds
2:07 AM 55.4 °F 53.6 °F 94% 30.12 in 10.0 mi Calm Calm - N/A   Mostly Cloudy
2:20 AM 55.4 °F 53.6 °F 94% 30.12 in 10.0 mi SW 4.6 mph - N/A   Mostly Cloudy
2:51 AM 55.9 °F 54.0 °F 93% 30.11 in 10.0 mi WSW 5.8 mph - N/A   Mostly Cloudy
3:19 AM 55.4 °F 53.6 °F 94% 30.11 in 10.0 mi SW 4.6 mph - N/A   Mostly Cloudy
3:27 AM 55.4 °F 53.6 °F 94% 30.11 in 10.0 mi WSW 3.5 mph - N/A   Mostly Cloudy
3:51 AM 55.9 °F 54.0 °F 93% 30.11 in 10.0 mi SW 4.6 mph - N/A   Mostly Cloudy
4:51 AM 55.0 °F 54.0 °F 96% 30.11 in 10.0 mi Calm Calm - N/A   Overcast
5:51 AM 55.0 °F 54.0 °F 96% 30.12 in 10.0 mi WSW 4.6 mph - N/A   Overcast
6:51 AM 55.9 °F 54.0 °F 93% 30.12 in 10.0 mi Variable 3.5 mph - N/A   Overcast
7:32 AM 55.4 °F 53.6 °F 94% 30.14 in 10.0 mi WSW 5.8 mph - N/A   Overcast
7:51 AM 57.0 °F 54.0 °F 89% 30.14 in 10.0 mi WSW 5.8 mph - N/A   Mostly Cloudy
8:09 AM 57.2 °F 53.6 °F 88% 30.15 in 10.0 mi Calm Calm - N/A   Scattered Clouds
8:36 AM 60.8 °F 53.6 °F 77% 30.16 in 10.0 mi WSW 8.1 mph - N/A   Mostly Cloudy
8:51 AM 60.1 °F 53.1 °F 78% 30.15 in 10.0 mi Variable 3.5 mph - N/A   Mostly Cloudy
9:51 AM 63.0 °F 54.0 °F 72% 30.16 in 10.0 mi WSW 8.1 mph - N/A   Mostly Cloudy
10:51 AM 64.9 °F 53.1 °F 65% 30.15 in 10.0 mi WSW 8.1 mph - N/A   Mostly Cloudy
11:51 AM 66.9 °F 51.1 °F 57% 30.14 in 10.0 mi Variable 6.9 mph - N/A   Partly Cloudy
12:51 PM 66.0 °F 51.1 °F 59% 30.14 in 10.0 mi West 9.2 mph 18.4 mph N/A   Mostly Cloudy
1:51 PM 66.0 °F 51.1 °F 59% 30.14 in 10.0 mi Variable 5.8 mph - N/A   Overcast
2:51 PM 66.0 °F 52.0 °F 60% 30.13 in 10.0 mi WSW 10.4 mph 17.3 mph N/A   Overcast
3:51 PM 69.1 °F 53.1 °F 57% 30.11 in 10.0 mi West 10.4 mph - N/A   Mostly Cloudy
4:51 PM 69.1 °F 52.0 °F 54% 30.10 in 10.0 mi West 8.1 mph 18.4 mph N/A   Partly Cloudy
5:51 PM 69.1 °F 52.0 °F 54% 30.11 in 10.0 mi West 9.2 mph - N/A   Mostly Cloudy
6:51 PM 66.9 °F 54.0 °F 63% 30.12 in 10.0 mi Variable 5.8 mph - N/A   Mostly Cloudy
7:51 PM 64.0 °F 54.0 °F 70% 30.12 in 10.0 mi Calm Calm - N/A   Clear
8:51 PM 59.0 °F 55.0 °F 87% 30.12 in 10.0 mi Calm Calm - N/A   Partly Cloudy
9:51 PM 55.9 °F 54.0 °F 93% 30.14 in 10.0 mi Calm Calm - N/A   Scattered Clouds
10:43 PM 53.6 °F 53.6 °F 100% 30.15 in 10.0 mi SSW 3.5 mph - N/A   Mostly Cloudy
10:51 PM 55.0 °F 54.0 °F 96% 30.15 in 10.0 mi SW 3.5 mph - N/A   Mostly Cloudy
11:51 PM 59.0 °F 55.9 °F 90% 30.15 in 10.0 mi SW 3.5 mph - N/A   Mostly Cloudy